Simultaneous Nadir Overpasses (SNOs) Predictions

Prediction of SNOs between GOES-17 and FY3D Satellite Orbit:

Table of predicted SNOs for the next 14.0 days since TLE Epoch: 2/7/2021
Index Date Time (GOES-17) GOES-17 Lat,Lon FY3D Lat,Lon Distance(km) Time Diff (sec)
1 02/07/2021 10:25:57 -0.04,-137.21 -0.91,-133.37 438.14 80
2 02/08/2021 22:47:34 0.03,-137.20 -0.28,-138.58 157.21 80
3 02/09/2021 22:31:17 0.03,-137.19 0.73,-133.99 364.37 80
4 02/11/2021 10:52:45 -0.01,-137.16 0.41,-139.17 228.72 80
5 02/12/2021 10:31:08 -0.01,-137.15 -0.59,-134.58 292.59 80
6 02/13/2021 22:52:45 0.01,-137.14 -0.59,-139.80 303.36 80
7 02/14/2021 22:36:28 0.01,-137.12 0.42,-135.21 217.81 80
8 02/16/2021 10:57:56 -0.01,-137.09 0.72,-140.39 376.01 80
9 02/17/2021 10:36:18 -0.01,-137.08 -0.29,-135.80 144.76 80
10 02/18/2021 22:57:56 0.00,-137.05 -0.90,-141.02 452.23 80
11 02/19/2021 22:41:38 0.00,-137.03 0.11,-136.43 68.31 80
